Pittsburgh, PA

5:58 PM EST on December 07, 2016 (GMT -0500)
Allegheny County

Weather History for KAGC - April, 2013

Change the Weather History Date:

Tuesday, April 9, 2013

  Actual Average Record
Temperature  
Mean Temperature 70 °F -  
Max Temperature 81 °F 63 °F 83 °F (1991)
Min Temperature 61 °F 38 °F 21 °F (1997)
Cooling Degree Days 5    
Growing Degree Days 20 (Base 50)    
Moisture  
Dew Point 50 °F    
Average Humidity 51    
Maximum Humidity 70    
Minimum Humidity 36    
Precipitation  
Precipitation 0.00 in - - ()
Sea Level Pressure  
Sea Level Pressure 30.00 in    
Wind  
Wind Speed 9 mph (SW)    
Max Wind Speed 15 mph    
Max Gust Speed 22 mph    
Visibility 10 miles    
Events      
Averages and records for this station are not official NWS values.
T = Trace of Precipitation, MM = Missing Value Source: NWS Daily Summary

Daily Weather History Graph

Daily Weather History Graph

Search for Another Location

Airport or City:

Trip Planner

Search our weather history database for the weather conditions in past years. The results will help you decide how hot, cold, wet, or windy it might be!

Date:

Astronomy

Apr. 09, 2013 Rise Set
Actual Time 6:50 AM EDT 7:52 PM EDT
Civil Twilight 6:22 AM EDT 8:20 PM EDT
Nautical Twilight 5:49 AM EDT 8:53 PM EDT
Astronomical Twilight 5:14 AM EDT 9:28 PM EDT
Moon 6:12 AM EDT (4/9) 7:26 PM EDT (4/9)
Length of Visible Light 13h 58m
Length of Day
13h 02m
Waning Crescent, 1% of the Moon is Illuminated
Apr 9
Waning Crescent
Apr 10
New
Apr 18
First Quarter
Apr 25
Full
May 2
Last Quarter

Hourly Weather History & Observations

Time (EDT) Temp. Dew Point Humidity Pressure Visibility Wind Dir Wind Speed Gust Speed Precip Events Conditions
12:53 AM 66.9 °F 46.9 °F 49% 29.97 in 10.0 mi SW 9.2 mph - N/A   Scattered Clouds
1:53 AM 66.9 °F 48.0 °F 51% 29.98 in 10.0 mi WSW 13.8 mph - N/A   Mostly Cloudy
2:53 AM 66.0 °F 48.9 °F 54% 29.98 in 10.0 mi West 11.5 mph - N/A   Overcast
3:53 AM 64.0 °F 50.0 °F 60% 29.99 in 10.0 mi West 10.4 mph - N/A   Partly Cloudy
4:53 AM 63.0 °F 50.0 °F 63% 30.01 in 10.0 mi West 8.1 mph - N/A   Mostly Cloudy
5:53 AM 62.1 °F 50.0 °F 65% 30.04 in 10.0 mi WSW 4.6 mph - N/A   Clear
6:53 AM 61.0 °F 50.0 °F 67% 30.07 in 10.0 mi WSW 5.8 mph - N/A   Clear
7:53 AM 61.0 °F 51.1 °F 70% 30.09 in 10.0 mi West 5.8 mph - N/A   Clear
8:53 AM 62.1 °F 46.0 °F 56% 30.10 in 10.0 mi Calm Calm - N/A   Clear
9:53 AM 64.0 °F 48.9 °F 58% 30.09 in 10.0 mi Calm Calm - N/A   Clear
10:53 AM 66.9 °F 51.1 °F 57% 30.10 in 10.0 mi SW 4.6 mph - N/A   Clear
11:53 AM 71.1 °F 52.0 °F 51% 30.09 in 10.0 mi WSW 4.6 mph - N/A   Clear
12:53 PM 73.9 °F 53.1 °F 48% 30.05 in 10.0 mi WSW 5.8 mph - N/A   Scattered Clouds
1:53 PM 75.9 °F 54.0 °F 46% 30.03 in 10.0 mi SSW 10.4 mph - N/A   Mostly Cloudy
2:53 PM 75.9 °F 52.0 °F 43% 30.00 in 10.0 mi SW 8.1 mph - N/A   Mostly Cloudy
3:53 PM 77.0 °F 51.1 °F 40% 29.97 in 10.0 mi South 11.5 mph 21.9 mph N/A   Mostly Cloudy
4:53 PM 79.0 °F 51.1 °F 38% 29.94 in 10.0 mi SW 13.8 mph 18.4 mph N/A   Mostly Cloudy
5:53 PM 79.0 °F 50.0 °F 36% 29.93 in 10.0 mi WSW 15.0 mph 21.9 mph N/A   Scattered Clouds
6:53 PM 79.0 °F 51.1 °F 38% 29.94 in 10.0 mi SW 11.5 mph 19.6 mph N/A   Partly Cloudy
7:53 PM 77.0 °F 51.1 °F 40% 29.93 in 10.0 mi SSW 10.4 mph - N/A   Clear
8:53 PM 75.0 °F 52.0 °F 44% 29.93 in 10.0 mi SSW 8.1 mph - N/A   Clear
9:53 PM 73.0 °F 52.0 °F 48% 29.92 in 10.0 mi SSW 9.2 mph - N/A   Clear
10:53 PM 72.0 °F 51.1 °F 48% 29.91 in 10.0 mi SSW 9.2 mph - N/A   Clear
11:53 PM 72.0 °F 50.0 °F 46% 29.92 in 10.0 mi WSW 10.4 mph - N/A   Clear